QPF
0.00 0.00 0.00 0.00 0.00 0.00 0.01 0.01 0.01 0.01 0.01 0.01 0.01 0.01 0.01 0.01 0.01 0.00 0.01 0.01 0.01 0.00 0.00 0.00 0.00 0.00 0.00 0.00 0.00 0.00 0.01 0.01 0.01 0.01 0.01 0.01 0.02 0.02 0.02 0.02 0.02 0.02 0.02 0.02
0.01 0.00 0.00 0.00 0.00 0.00 0.01 0.01 0.01 0.01 0.01 0.01 0.01 0.01 0.01 0.01 0.01 0.01 0.01 0.01 0.01 0.00 0.00 0.00 0.00 0.00 0.00 0.00 0.00 0.00 0.00 0.01 0.01 0.01 0.01 0.01 0.01 0.01 0.01 0.01 0.01 0.01 0.01 0.01
0.01 0.01 0.01 0.01 0.00 0.00 0.01 0.01 0.01 0.01 0.00 0.00 0.00 0.00 0.00 0.00 0.01 0.01 0.01 0.01 0.01 0.00 0.00 0.00 0.00 0.00 0.00 0.00 0.00 0.00 0.00 0.00 0.00 0.00 0.00 0.01 0.01 0.01 0.01 0.01 0.01 0.01 0.01 0.01
0.02 0.02 0.02 0.01 0.00 0.00 0.00 0.00 0.01 0.01 0.00 0.00 0.00 0.00 0.00 0.00 0.00 0.01 0.01 0.01 0.01 0.00 0.00 0.00 0.00 0.00 0.00 0.00 0.00 0.00 0.00 0.00 0.00 0.00 0.00 0.00 0.00 0.00 0.00 0.00 0.00 0.00 0.00 0.01
0.03 0.02 0.01 0.00 0.00 0.00 0.00 0.00 0.00 0.00 0.00 0.00 0.00 0.00 0.00 0.00 0.00 0.00 0.00 0.00 0.00 0.00 0.00 0.00 0.00 0.00 0.00 0.00 0.00 0.00 0.00 0.00 0.00 0.00 0.00 0.00 0.00 0.00 0.00 0.00 0.00 0.00 0.00 0.00
0.04 0.03 0.01 0.00 0.00 0.00 0.00 0.00 0.00 0.00 0.00 0.00 0.00 0.00 0.00 0.00 0.00 0.00 0.00 0.00 0.00 0.00 0.00 0.00 0.00 0.00 0.00 0.00 0.00 0.00 0.00 0.00 0.00 0.00 0.00 0.00 0.00 0.00 0.00 0.00 0.00 0.00 0.00 0.00
0.03 0.02 0.01 0.00 0.00 0.00 0.01 0.00 0.00 0.00 0.00 0.00 0.00 0.00 0.00 0.00 0.00 0.00 0.00 0.00 0.00 0.00 0.00 0.00 0.00 0.00 0.00 0.00 0.00 0.00 0.00 0.00 0.00 0.00 0.00 0.00 0.00 0.00 0.00 0.00 0.00 0.00 0.00 0.00
0.01 0.02 0.01 0.00 0.00 0.00 0.01 0.00 0.00 0.00 0.00 0.00 0.00 0.00 0.00 0.00 0.01 0.00 0.00 0.00 0.00 0.00 0.00 0.01 0.01 0.01 0.01 0.01 0.01 0.00 0.00 0.00 0.00 0.00 0.00 0.00 0.00 0.00 0.00 0.00 0.00 0.00 0.00 0.00
0.01 0.01 0.00 0.00 0.00 0.01 0.01 0.01 0.01 0.01 0.01 0.01 0.01 0.01 0.01 0.01 0.01 0.01 0.01 0.01 0.01 0.01 0.01 0.01 0.01 0.01 0.01 0.01 0.01 0.01 0.01 0.00 0.00 0.00 0.00 0.00 0.00 0.00 0.00 0.00 0.00 0.00 0.00 0.00
0.01 0.00 0.00 0.01 0.01 0.01 0.01 0.01 0.01 0.01 0.01 0.01 0.01 0.01 0.01 0.01 0.01 0.01 0.01 0.01 0.01 0.01 0.01 0.01 0.01 0.01 0.01 0.01 0.01 0.01 0.01 0.00 0.00 0.00 0.00 0.00 0.00 0.00 0.00 0.00 0.00 0.00 0.00 0.00
0.01 0.01 0.01 0.01 0.01 0.01 0.01 0.01 0.01 0.01 0.01 0.01 0.01 0.01 0.01 0.01 0.01 0.01 0.01 0.01 0.01 0.01 0.01 0.01 0.01 0.01 0.01 0.01 0.01 0.01 0.01 0.01 0.00 0.00 0.00 0.00 0.00 0.00 0.00 0.00 0.00 0.01 0.01 0.01
0.01 0.01 0.01 0.01 0.01 0.01 0.01 0.01 0.01 0.01 0.01 0.01 0.01 0.01 0.01 0.01 0.01 0.01 0.01 0.01 0.01 0.01 0.01 0.01 0.01 0.01 0.01 0.01 0.01 0.01 0.01 0.00 0.00 0.00 0.00 0.00 0.00 0.00 0.00 0.00 0.00 0.00 0.01 0.01
0.01 0.01 0.01 0.01 0.01 0.01 0.01 0.01 0.01 0.01 0.01 0.01 0.01 0.01 0.01 0.01 0.01 0.01 0.01 0.01 0.01 0.01 0.01 0.01 0.01 0.01 0.01 0.01 0.01 0.01 0.01 0.00 0.00 0.00 0.00 0.00 0.00 0.00 0.00 0.00 0.00 0.00 0.01 0.01
0.01 0.01 0.01 0.01 0.01 0.01 0.01 0.01 0.01 0.01 0.01 0.01 0.01 0.01 0.01 0.01 0.01 0.01 0.01 0.01 0.01 0.01 0.01 0.01 0.01 0.01 0.01 0.01 0.01 0.01 0.00 0.00 0.00 0.01 0.01 0.01 0.01 0.01 0.00 0.00 0.00 0.00 0.00 0.00
0.01 0.01 0.01 0.01 0.01 0.01 0.01 0.01 0.01 0.01 0.01 0.01 0.01 0.01 0.01 0.01 0.01 0.01 0.01 0.01 0.01 0.01 0.01 0.01 0.00 0.01 0.01 0.01 0.00 0.00 0.00 0.00 0.01 0.01 0.01 0.01 0.01 0.01 0.01 0.01 0.00 0.00 0.00 0.00
0.01 0.01 0.01 0.01 0.01 0.01 0.01 0.01 0.01 0.01 0.01 0.01 0.01 0.01 0.01 0.01 0.01 0.01 0.01 0.01 0.01 0.01 0.00 0.00 0.00 0.00 0.00 0.00 0.00 0.00 0.00 0.00 0.01 0.01 0.01 0.01 0.01 0.01 0.00 0.00 0.00 0.00 0.00 0.00
0.01 0.01 0.01 0.01 0.01 0.01 0.01 0.01 0.01 0.01 0.01 0.01 0.01 0.01 0.01 0.01 0.01 0.01 0.01 0.01 0.01 0.01 0.00 0.00 0.00 0.00 0.00 0.00 0.00 0.00 0.00 0.00 0.01 0.01 0.01 0.01 0.01 0.01 0.00 0.00 0.00 0.00 0.00 0.00
0.01 0.01 0.01 0.01 0.01 0.01 0.01 0.01 0.01 0.01 0.01 0.01 0.01 0.01 0.01 0.01 0.01 0.01 0.01 0.01 0.00 0.00 0.00 0.00 0.00 0.01 0.00 0.00 0.01 0.01 0.01 0.01 0.01 0.01 0.01 0.01 0.01 0.01 0.01 0.01 0.00 0.00 0.00 0.00
0.01 0.01 0.01 0.01 0.01 0.01 0.01 0.00 0.00 0.00 0.01 0.01 0.01 0.01 0.01 0.01 0.01 0.01 0.01 0.00 0.00 0.00 0.00 0.00 0.01 0.00 0.00 0.00 0.01 0.01 0.01 0.01 0.01 0.01 0.01 0.01 0.01 0.01 0.01 0.01 0.00 0.00 0.00 0.00
0.00 0.00 0.00 0.00 0.00 0.00 0.00 0.00 0.00 0.00 0.01 0.01 0.01 0.01 0.01 0.01 0.01 0.00 0.00 0.00 0.00 0.01 0.01 0.01 0.01 0.00 0.00 0.01 0.01 0.01 0.01 0.01 0.01 0.01 0.01 0.01 0.01 0.01 0.01 0.01 0.01 0.00 0.00 0.00
0.00 0.00 0.00 0.00 0.00 0.00 0.00 0.00 0.01 0.01 0.01 0.01 0.01 0.01 0.00 0.00 0.00 0.00 0.00 0.00 0.00 0.00 0.01 0.00 0.00 0.00 0.01 0.01 0.01 0.01 0.01 0.01 0.01 0.01 0.01 0.01 0.01 0.01 0.01 0.01 0.01 0.00 0.00 0.00
0.00 0.00 0.00 0.00 0.00 0.00 0.00 0.01 0.01 0.01 0.01 0.01 0.01 0.00 0.00 0.00 0.01 0.00 0.00 0.00 0.00 0.01 0.01 0.00 0.00 0.01 0.02 0.02 0.01 0.01 0.01 0.01 0.01 0.01 0.01 0.01 0.01 0.01 0.01 0.01 0.01 0.00 0.00 0.00
0.00 0.00 0.00 0.00 0.00 0.00 0.00 0.01 0.01 0.01 0.01 0.01 0.01 0.01 0.01 0.01 0.01 0.01 0.01 0.01 0.01 0.01 0.01 0.01 0.01 0.01 0.02 0.01 0.01 0.01 0.01 0.01 0.01 0.01 0.01 0.01 0.01 0.01 0.01 0.01 0.01 0.00 0.00 0.00
0.00 0.00 0.00 0.00 0.00 0.00 0.00 0.00 0.00 0.00 0.01 0.01 0.01 0.01 0.01 0.01 0.01 0.01 0.01 0.01 0.01 0.01 0.01 0.01 0.01 0.01 0.01 0.01 0.00 0.00 0.00 0.01 0.01 0.01 0.01 0.01 0.01 0.01 0.01 0.01 0.01 0.00 0.00 0.01
0.00 0.00 0.00 0.00 0.00 0.01 0.01 0.01 0.01 0.01 0.01 0.01 0.01 0.01 0.01 0.01 0.01 0.01 0.01 0.01 0.01 0.01 0.01 0.01 0.01 0.01 0.01 0.00 0.00 0.00 0.01 0.01 0.01 0.01 0.01 0.01 0.01 0.01 0.01 0.01 0.01 0.01 0.01 0.00
0.00 0.00 0.00 0.01 0.01 0.01 0.01 0.01 0.01 0.01 0.01 0.01 0.01 0.01 0.01 0.01 0.01 0.01 0.01 0.01 0.01 0.00 0.00 0.00 0.00 0.00 0.00 0.00 0.00 0.00 0.01 0.01 0.01 0.01 0.01 0.01 0.01 0.01 0.01 0.01 0.01 0.01 0.01 0.01
0.00 0.00 0.01 0.01 0.01 0.01 0.01 0.01 0.01 0.01 0.01 0.01 0.01 0.01 0.01 0.01 0.01 0.01 0.01 0.00 0.00 0.00 0.00 0.00 0.00 0.00 0.00 0.00 0.00 0.00 0.00 0.01 0.01 0.01 0.01 0.01 0.01 0.01 0.01 0.01 0.01 0.01 0.01 0.01
MSLP
1023.24 1023.15 1022.83 1022.29 1021.57 1020.70 1019.78 1018.90 1018.15 1017.60 1017.33 1017.37 1017.73 1018.38 1019.28 1020.37 1021.58 1022.86 1024.14 1025.38 1026.55 1027.60 1028.54 1029.35 1030.02 1030.56 1030.95 1031.20 1031.32 1031.33 1031.25 1031.11 1030.91 1030.70 1030.50 1030.31 1030.15 1030.01 1029.89 1029.77 1029.64 1029.47 1029.26 1029.00
1023.50 1023.22 1022.75 1022.10 1021.29 1020.40 1019.49 1018.66 1017.97 1017.50 1017.30 1017.39 1017.79 1018.46 1019.37 1020.46 1021.67 1022.96 1024.27 1025.55 1026.77 1027.89 1028.91 1029.79 1030.53 1031.12 1031.55 1031.84 1031.98 1032.00 1031.91 1031.75 1031.53 1031.28 1031.03 1030.78 1030.55 1030.33 1030.12 1029.91 1029.68 1029.44 1029.16 1028.84
1023.39 1022.96 1022.37 1021.63 1020.79 1019.91 1019.07 1018.33 1017.76 1017.42 1017.34 1017.53 1018.01 1018.74 1019.68 1020.78 1022.00 1023.29 1024.60 1025.90 1027.13 1028.28 1029.33 1030.24 1031.01 1031.63 1032.09 1032.39 1032.55 1032.57 1032.49 1032.32 1032.09 1031.82 1031.53 1031.22 1030.92 1030.61 1030.31 1030.00 1029.68 1029.33 1028.97 1028.59
1022.81 1022.29 1021.63 1020.88 1020.07 1019.28 1018.57 1017.99 1017.61 1017.46 1017.55 1017.90 1018.49 1019.30 1020.29 1021.41 1022.64 1023.91 1025.20 1026.46 1027.67 1028.79 1029.81 1030.71 1031.46 1032.06 1032.51 1032.81 1032.97 1033.00 1032.92 1032.76 1032.53 1032.25 1031.93 1031.58 1031.22 1030.84 1030.44 1030.03 1029.60 1029.16 1028.71 1028.25
1021.83 1021.28 1020.64 1019.95 1019.26 1018.63 1018.13 1017.78 1017.64 1017.72 1018.02 1018.55 1019.28 1020.18 1021.22 1022.36 1023.56 1024.79 1026.02 1027.21 1028.34 1029.38 1030.32 1031.15 1031.83 1032.38 1032.79 1033.06 1033.20 1033.22 1033.15 1033.00 1032.77 1032.50 1032.17 1031.80 1031.40 1030.96 1030.49 1029.99 1029.47 1028.94 1028.40 1027.87
1020.64 1020.15 1019.60 1019.05 1018.56 1018.16 1017.91 1017.83 1017.95 1018.28 1018.80 1019.50 1020.36 1021.34 1022.41 1023.54 1024.69 1025.85 1026.98 1028.06 1029.07 1029.99 1030.82 1031.52 1032.11 1032.56 1032.90 1033.11 1033.22 1033.23 1033.16 1033.01 1032.80 1032.54 1032.22 1031.84 1031.42 1030.94 1030.41 1029.85 1029.26 1028.65 1028.04 1027.44
1019.55 1019.19 1018.81 1018.46 1018.20 1018.06 1018.07 1018.26 1018.63 1019.18 1019.88 1020.73 1021.67 1022.69 1023.76 1024.83 1025.91 1026.96 1027.96 1028.90 1029.76 1030.54 1031.22 1031.79 1032.25 1032.60 1032.85 1032.99 1033.05 1033.03 1032.95 1032.80 1032.61 1032.36 1032.05 1031.68 1031.24 1030.74 1030.18 1029.58 1028.93 1028.27 1027.60 1026.94
1018.91 1018.72 1018.54 1018.41 1018.38 1018.48 1018.73 1019.14 1019.71 1020.41 1021.24 1022.15 1023.12 1024.12 1025.12 1026.11 1027.06 1027.97 1028.83 1029.62 1030.33 1030.96 1031.49 1031.93 1032.27 1032.51 1032.66 1032.73 1032.73 1032.67 1032.56 1032.41 1032.21 1031.97 1031.66 1031.30 1030.86 1030.35 1029.77 1029.13 1028.45 1027.75 1027.04 1026.34
1019.01 1019.00 1019.00 1019.07 1019.22 1019.50 1019.92 1020.47 1021.14 1021.91 1022.76 1023.66 1024.58 1025.49 1026.38 1027.24 1028.05 1028.81 1029.51 1030.15 1030.72 1031.21 1031.62 1031.94 1032.17 1032.31 1032.38 1032.37 1032.31 1032.20 1032.05 1031.87 1031.66 1031.40 1031.08 1030.70 1030.25 1029.73 1029.14 1028.49 1027.79 1027.06 1026.33 1025.60
1020.00 1020.13 1020.27 1020.46 1020.73 1021.10 1021.58 1022.17 1022.84 1023.59 1024.37 1025.18 1025.97 1026.74 1027.48 1028.17 1028.82 1029.42 1029.98 1030.48 1030.93 1031.31 1031.62 1031.85 1031.99 1032.06 1032.05 1031.98 1031.85 1031.68 1031.48 1031.25 1030.99 1030.69 1030.34 1029.93 1029.46 1028.91 1028.30 1027.64 1026.92 1026.18 1025.43 1024.69
1021.84 1022.05 1022.25 1022.48 1022.76 1023.12 1023.57 1024.09 1024.68 1025.32 1025.97 1026.62 1027.24 1027.84 1028.40 1028.92 1029.40 1029.86 1030.28 1030.68 1031.02 1031.32 1031.55 1031.71 1031.80 1031.80 1031.73 1031.59 1031.40 1031.16 1030.89 1030.59 1030.25 1029.89 1029.48 1029.02 1028.50 1027.92 1027.29 1026.60 1025.87 1025.12 1024.36 1023.62
1024.31 1024.52 1024.69 1024.86 1025.06 1025.33 1025.66 1026.06 1026.51 1026.99 1027.47 1027.94 1028.39 1028.80 1029.19 1029.55 1029.89 1030.21 1030.52 1030.82 1031.08 1031.31 1031.49 1031.60 1031.63 1031.58 1031.45 1031.25 1030.99 1030.67 1030.31 1029.92 1029.50 1029.05 1028.56 1028.03 1027.45 1026.83 1026.15 1025.44 1024.70 1023.93 1023.17 1022.42
1027.05 1027.17 1027.23 1027.27 1027.34 1027.46 1027.65 1027.89 1028.18 1028.50 1028.83 1029.14 1029.44 1029.70 1029.94 1030.17 1030.38 1030.59 1030.80 1031.01 1031.20 1031.36 1031.48 1031.53 1031.51 1031.40 1031.21 1030.94 1030.60 1030.20 1029.76 1029.27 1028.76 1028.22 1027.64 1027.04 1026.39 1025.72 1025.00 1024.25 1023.49 1022.72 1021.95 1021.19
1029.68 1029.65 1029.54 1029.42 1029.32 1029.29 1029.33 1029.44 1029.61 1029.81 1030.02 1030.23 1030.41 1030.57 1030.71 1030.84 1030.95 1031.07 1031.19 1031.31 1031.42 1031.50 1031.54 1031.51 1031.42 1031.24 1030.98 1030.64 1030.22 1029.74 1029.21 1028.64 1028.05 1027.42 1026.78 1026.10 1025.40 1024.68 1023.92 1023.15 1022.36 1021.57 1020.79 1020.03
1031.89 1031.67 1031.38 1031.08 1030.83 1030.67 1030.61 1030.63 1030.73 1030.87 1031.04 1031.20 1031.34 1031.44 1031.52 1031.58 1031.62 1031.65 1031.68 1031.70 1031.71 1031.69 1031.63 1031.51 1031.32 1031.06 1030.72 1030.29 1029.80 1029.25 1028.66 1028.03 1027.38 1026.70 1026.00 1025.28 1024.55 1023.79 1023.00 1022.21 1021.40 1020.59 1019.80 1019.02
1033.50 1033.08 1032.61 1032.17 1031.82 1031.58 1031.46 1031.46 1031.56 1031.71 1031.88 1032.05 1032.19 1032.29 1032.34 1032.35 1032.32 1032.27 1032.20 1032.11 1032.00 1031.86 1031.68 1031.44 1031.15 1030.79 1030.36 1029.87 1029.32 1028.73 1028.09 1027.44 1026.76 1026.06 1025.35 1024.62 1023.87 1023.10 1022.30 1021.49 1020.67 1019.84 1019.03 1018.23
1034.50 1033.90 1033.29 1032.75 1032.34 1032.08 1031.97 1032.00 1032.13 1032.33 1032.55 1032.76 1032.92 1033.03 1033.07 1033.04 1032.95 1032.81 1032.64 1032.43 1032.19 1031.92 1031.60 1031.25 1030.84 1030.39 1029.89 1029.34 1028.76 1028.14 1027.51 1026.86 1026.20 1025.52 1024.83 1024.12 1023.39 1022.62 1021.83 1021.01 1020.18 1019.33 1018.48 1017.66
1034.99 1034.26 1033.57 1032.99 1032.56 1032.32 1032.25 1032.33 1032.52 1032.78 1033.05 1033.29 1033.48 1033.58 1033.60 1033.52 1033.37 1033.15 1032.87 1032.54 1032.18 1031.78 1031.35 1030.88 1030.38 1029.85 1029.30 1028.72 1028.13 1027.53 1026.92 1026.31 1025.70 1025.08 1024.44 1023.78 1023.08 1022.34 1021.56 1020.74 1019.89 1019.01 1018.13 1017.26
1035.19 1034.38 1033.66 1033.08 1032.68 1032.47 1032.45 1032.57 1032.80 1033.08 1033.37 1033.61 1033.78 1033.85 1033.82 1033.69 1033.46 1033.16 1032.79 1032.36 1031.90 1031.40 1030.88 1030.34 1029.77 1029.20 1028.63 1028.05 1027.48 1026.92 1026.37 1025.83 1025.29 1024.74 1024.17 1023.56 1022.91 1022.20 1021.43 1020.61 1019.73 1018.82 1017.89 1016.96
1035.31 1034.49 1033.78 1033.22 1032.86 1032.69 1032.69 1032.82 1033.03 1033.28 1033.52 1033.70 1033.80 1033.80 1033.70 1033.49 1033.20 1032.82 1032.38 1031.90 1031.37 1030.82 1030.26 1029.68 1029.10 1028.52 1027.96 1027.41 1026.88 1026.38 1025.90 1025.43 1024.96 1024.49 1023.99 1023.44 1022.82 1022.14 1021.37 1020.53 1019.63 1018.67 1017.68 1016.69
1035.49 1034.71 1034.04 1033.54 1033.21 1033.05 1033.02 1033.10 1033.24 1033.39 1033.51 1033.58 1033.56 1033.45 1033.25 1032.97 1032.61 1032.19 1031.72 1031.21 1030.68 1030.13 1029.57 1029.01 1028.45 1027.90 1027.37 1026.87 1026.40 1025.96 1025.54 1025.14 1024.74 1024.32 1023.87 1023.35 1022.76 1022.08 1021.31 1020.45 1019.50 1018.49 1017.44 1016.38
1035.80 1035.08 1034.48 1034.02 1033.71 1033.52 1033.43 1033.40 1033.40 1033.40 1033.36 1033.26 1033.09 1032.86 1032.56 1032.21 1031.81 1031.38 1030.92 1030.44 1029.95 1029.45 1028.94 1028.43 1027.93 1027.44 1026.96 1026.51 1026.09 1025.70 1025.33 1024.97 1024.61 1024.22 1023.79 1023.29 1022.70 1022.01 1021.21 1020.31 1019.32 1018.26 1017.15 1016.03
1036.17 1035.54 1035.02 1034.60 1034.28 1034.04 1033.85 1033.68 1033.51 1033.31 1033.08 1032.80 1032.48 1032.13 1031.75 1031.35 1030.94 1030.54 1030.13 1029.72 1029.31 1028.89 1028.47 1028.04 1027.61 1027.18 1026.76 1026.35 1025.97 1025.60 1025.25 1024.91 1024.56 1024.18 1023.74 1023.23 1022.62 1021.91 1021.08 1020.14 1019.10 1017.99 1016.83 1015.66
1036.52 1035.99 1035.53 1035.14 1034.80 1034.49 1034.18 1033.86 1033.50 1033.12 1032.71 1032.27 1031.82 1031.37 1030.93 1030.53 1030.15 1029.80 1029.48 1029.16 1028.86 1028.55 1028.22 1027.88 1027.52 1027.14 1026.76 1026.38 1026.00 1025.64 1025.29 1024.94 1024.57 1024.17 1023.71 1023.17 1022.54 1021.79 1020.92 1019.94 1018.87 1017.72 1016.53 1015.34
1036.75 1036.30 1035.89 1035.52 1035.15 1034.77 1034.35 1033.89 1033.38 1032.84 1032.28 1031.72 1031.18 1030.68 1030.24 1029.86 1029.54 1029.27 1029.05 1028.84 1028.64 1028.43 1028.19 1027.92 1027.61 1027.27 1026.91 1026.53 1026.15 1025.77 1025.40 1025.02 1024.62 1024.19 1023.70 1023.13 1022.46 1021.68 1020.78 1019.78 1018.69 1017.52 1016.32 1015.11
1036.77 1036.39 1036.03 1035.67 1035.27 1034.83 1034.32 1033.75 1033.14 1032.50 1031.85 1031.22 1030.65 1030.15 1029.74 1029.41 1029.17 1028.99 1028.86 1028.76 1028.65 1028.51 1028.33 1028.10 1027.82 1027.49 1027.12 1026.73 1026.33 1025.93 1025.52 1025.11 1024.68 1024.21 1023.69 1023.10 1022.40 1021.61 1020.70 1019.69 1018.59 1017.43 1016.23 1015.04
1036.61 1036.27 1035.94 1035.58 1035.16 1034.67 1034.12 1033.49 1032.82 1032.14 1031.46 1030.83 1030.27 1029.81 1029.45 1029.20 1029.03 1028.94 1028.89 1028.85 1028.79 1028.70 1028.55 1028.33 1028.04 1027.70 1027.32 1026.90 1026.47 1026.04 1025.60 1025.17 1024.72 1024.23 1023.70 1023.09 1022.40 1021.60 1020.69 1019.69 1018.60 1017.46 1016.29 1015.13
Thickness
5410 5403 5398 5399 5395 5382 5381 5403 5412 5423 5412 5413 5399 5387 5379 5372 5367 5362 5359 5355 5351 5347 5344 5341 5337 5333 5331 5329 5328 5326 5325 5325 5324 5323 5322 5321 5321 5322 5322 5322 5323 5324 5326 5328
5392 5388 5381 5381 5388 5382 5376 5380 5385 5387 5393 5390 5380 5371 5364 5360 5355 5353 5351 5347 5343 5338 5334 5331 5327 5323 5320 5318 5317 5316 5315 5314 5313 5312 5311 5310 5310 5310 5310 5311 5312 5312 5314 5315
5403 5376 5372 5396 5390 5376 5371 5366 5370 5381 5389 5374 5365 5361 5357 5352 5346 5343 5341 5337 5333 5329 5325 5321 5317 5313 5311 5309 5307 5306 5304 5303 5301 5300 5300 5299 5299 5299 5299 5299 5300 5301 5302 5303
5386 5374 5388 5404 5368 5368 5364 5360 5355 5360 5362 5358 5354 5347 5341 5338 5336 5333 5329 5325 5322 5318 5314 5311 5307 5304 5302 5300 5298 5296 5295 5293 5291 5290 5289 5288 5287 5288 5288 5288 5289 5290 5290 5291
5375 5384 5396 5385 5360 5351 5352 5360 5353 5347 5348 5343 5333 5333 5338 5330 5325 5322 5318 5315 5311 5308 5304 5300 5297 5294 5292 5291 5289 5287 5286 5284 5282 5280 5278 5277 5277 5277 5276 5276 5277 5278 5279 5280
5361 5373 5389 5387 5350 5336 5342 5358 5349 5338 5336 5331 5326 5344 5346 5322 5314 5310 5306 5302 5299 5296 5293 5290 5288 5285 5283 5282 5280 5278 5276 5274 5272 5270 5268 5267 5266 5265 5265 5265 5266 5266 5267 5268
5356 5362 5376 5354 5328 5327 5352 5364 5338 5330 5326 5320 5322 5326 5318 5307 5302 5298 5294 5291 5288 5285 5283 5280 5278 5275 5274 5273 5271 5269 5266 5264 5262 5260 5258 5257 5256 5254 5254 5254 5254 5255 5256 5257
5347 5352 5366 5329 5322 5335 5345 5329 5322 5319 5315 5310 5307 5301 5297 5294 5290 5286 5283 5280 5277 5275 5273 5270 5268 5265 5264 5263 5261 5258 5255 5253 5251 5249 5248 5247 5245 5244 5243 5243 5243 5243 5244 5246
5346 5356 5339 5321 5323 5320 5313 5312 5311 5308 5302 5297 5292 5290 5286 5283 5279 5276 5273 5270 5267 5264 5262 5260 5258 5256 5255 5254 5250 5248 5245 5243 5241 5239 5237 5236 5235 5234 5233 5232 5233 5233 5234 5235
5324 5332 5323 5314 5310 5305 5301 5299 5298 5294 5290 5286 5283 5280 5276 5273 5270 5267 5263 5259 5256 5254 5252 5251 5248 5246 5245 5243 5240 5238 5236 5234 5232 5230 5228 5227 5225 5225 5224 5223 5222 5222 5223 5223
5315 5318 5312 5310 5304 5299 5292 5288 5284 5281 5278 5276 5273 5270 5267 5264 5261 5258 5255 5251 5247 5244 5243 5241 5239 5237 5235 5232 5230 5228 5226 5224 5222 5221 5219 5218 5217 5215 5214 5213 5212 5212 5212 5212
5323 5314 5306 5307 5299 5290 5283 5280 5276 5272 5269 5266 5263 5260 5258 5255 5252 5248 5245 5242 5239 5236 5234 5233 5230 5228 5226 5223 5221 5219 5218 5216 5214 5212 5210 5209 5208 5207 5205 5203 5203 5202 5202 5202
5299 5294 5290 5288 5285 5281 5276 5272 5268 5264 5260 5257 5254 5251 5248 5245 5242 5239 5236 5233 5230 5228 5226 5224 5221 5219 5217 5215 5212 5210 5208 5207 5205 5204 5202 5200 5199 5198 5198 5197 5194 5194 5194 5194
5282 5279 5279 5278 5276 5270 5265 5262 5257 5254 5251 5248 5245 5242 5238 5235 5233 5230 5228 5225 5222 5219 5217 5215 5213 5211 5209 5206 5203 5201 5200 5198 5197 5195 5194 5192 5190 5189 5189 5188 5188 5187 5185 5185
5273 5269 5269 5266 5261 5259 5255 5251 5248 5245 5243 5239 5235 5232 5229 5227 5224 5222 5219 5215 5212 5210 5208 5206 5205 5203 5201 5198 5196 5194 5192 5191 5189 5187 5185 5184 5182 5181 5180 5178 5178 5178 5177 5176
5262 5257 5255 5253 5252 5249 5245 5242 5240 5238 5235 5231 5227 5224 5221 5218 5216 5213 5210 5206 5204 5203 5201 5199 5198 5196 5193 5190 5188 5186 5185 5183 5181 5179 5178 5176 5175 5173 5171 5170 5169 5168 5168 5167
5252 5252 5249 5247 5244 5241 5238 5235 5233 5230 5227 5224 5221 5217 5213 5209 5207 5204 5202 5199 5196 5194 5193 5191 5190 5188 5185 5182 5180 5179 5177 5176 5173 5172 5170 5168 5166 5165 5163 5161 5160 5159 5158 5156
5245 5245 5242 5239 5236 5232 5229 5227 5224 5221 5219 5216 5212 5208 5204 5201 5200 5197 5194 5190 5188 5186 5185 5184 5181 5179 5177 5175 5172 5171 5169 5167 5165 5163 5162 5160 5158 5156 5154 5152 5151 5149 5148 5147
5235 5234 5231 5229 5226 5222 5220 5218 5215 5213 5210 5206 5203 5200 5197 5193 5191 5188 5184 5182 5181 5181 5180 5176 5174 5172 5170 5168 5165 5163 5161 5159 5157 5155 5153 5152 5150 5148 5146 5144 5142 5141 5139 5138
5227 5225 5222 5219 5217 5213 5211 5209 5206 5203 5200 5196 5193 5191 5188 5185 5182 5179 5176 5175 5176 5175 5172 5169 5167 5165 5162 5160 5158 5156 5153 5151 5149 5147 5145 5143 5142 5140 5138 5136 5134 5133 5131 5129
5218 5215 5213 5210 5207 5204 5202 5199 5196 5193 5190 5187 5185 5183 5180 5177 5173 5170 5169 5169 5168 5165 5163 5162 5159 5157 5155 5152 5150 5148 5145 5143 5141 5139 5137 5135 5133 5131 5130 5128 5126 5125 5123 5122
5207 5205 5202 5200 5197 5195 5192 5188 5185 5183 5181 5178 5176 5173 5171 5168 5166 5163 5162 5161 5160 5157 5156 5154 5152 5150 5148 5145 5143 5140 5137 5135 5132 5130 5128 5127 5125 5123 5122 5120 5119 5117 5116 5115
5197 5194 5192 5190 5187 5184 5181 5179 5176 5174 5172 5171 5168 5166 5165 5162 5160 5158 5157 5155 5152 5150 5148 5147 5145 5143 5141 5138 5135 5132 5130 5127 5125 5123 5121 5119 5117 5115 5114 5113 5111 5110 5109 5109
5188 5186 5183 5180 5177 5175 5173 5172 5168 5167 5164 5162 5161 5159 5157 5156 5154 5152 5150 5148 5145 5143 5141 5139 5138 5136 5133 5130 5127 5124 5122 5119 5117 5115 5114 5112 5110 5108 5107 5105 5104 5103 5103 5102
5180 5177 5174 5172 5171 5169 5167 5164 5161 5159 5158 5156 5154 5152 5150 5149 5147 5145 5142 5140 5138 5136 5134 5131 5130 5128 5125 5122 5119 5117 5115 5112 5110 5108 5107 5105 5103 5102 5100 5099 5097 5097 5096 5096
5173 5172 5169 5166 5164 5162 5159 5157 5155 5153 5152 5150 5148 5146 5143 5141 5139 5137 5134 5132 5130 5129 5126 5124 5121 5119 5117 5115 5112 5110 5108 5106 5104 5102 5100 5099 5097 5096 5094 5093 5092 5091 5090 5090
5166 5164 5161 5159 5157 5154 5151 5149 5148 5146 5145 5143 5141 5139 5136 5134 5132 5130 5127 5126 5123 5121 5119 5117 5114 5112 5110 5108 5106 5104 5103 5101 5099 5097 5095 5093 5092 5090 5089 5087 5086 5085 5085 5085